Location: Herm
(49.4830°N, 2.4500°W)
Time: 06:50:06
(UTC+00:00)

Envisat - Pass Details

Date: 07 October 2022
Orbit: 763 x 765 km, 98.2° (Epoch: 09 December)

Event Time Altitude Azimuth Distance (km) Brightness Sun altitude
Rises 05:47:09 0° 13° (NNE) 3,247 6.6 -15.6°
Reaches altitude 10° 05:49:28 10° 13° (NNE) 2,316 5.8 -15.2°
Maximum altitude 05:54:35 83° 286° (WNW) 779 2.9 -14.4°
Drops below altitude 10° 05:59:39 10° 199° (SSW) 2,298 5.2 -13.6°
Sets 06:01:57 0° 199° (SSW) 3,220 6.0 -13.2°
